Time,TemperatureF,DewpointF,PressureIn,WindDirection,WindDirectionDegrees,WindSpeedMPH,WindSpeedGustMPH,Humidity,HourlyPrecipIn,Conditions,Clouds,dailyrainin,SolarRadiationWatts/m^2,SoftwareType,DateUTC
2013-02-10 00:02:00,34.3,26.6,30.05,West,271,0.0,1.0,73,0.00,,,0.02,0.0,meteohub,2013-02-10 07:02:00,
2013-02-10 00:07:00,34.3,26.6,30.05,West,271,0.0,1.0,73,0.00,,,0.00,0.0,meteohub,2013-02-10 07:07:00,
2013-02-10 00:12:00,34.3,27.0,30.05,West,271,0.0,1.0,74,0.00,,,0.00,0.0,meteohub,2013-02-10 07:12:00,
2013-02-10 00:17:00,34.2,26.8,30.05,West,271,0.0,1.0,74,0.00,,,0.00,0.0,meteohub,2013-02-10 07:17:00,
2013-02-10 00:22:00,33.6,26.6,30.05,West,271,0.0,1.0,75,0.00,,,0.00,0.0,meteohub,2013-02-10 07:22:00,
2013-02-10 00:27:00,33.4,26.8,30.05,West,271,0.0,1.0,76,0.00,,,0.00,0.0,meteohub,2013-02-10 07:27:00,
2013-02-10 00:32:00,33.1,26.6,30.05,West,271,0.0,1.0,77,0.00,,,0.00,0.0,meteohub,2013-02-10 07:32:00,
2013-02-10 00:37:00,32.7,26.6,30.05,West,271,1.0,1.0,78,0.00,,,0.00,0.0,meteohub,2013-02-10 07:37:00,
2013-02-10 00:42:00,32.7,26.2,30.05,West,271,1.0,1.0,77,0.00,,,0.00,0.0,meteohub,2013-02-10 07:42:00,
2013-02-10 00:47:00,32.4,26.2,30.06,West,271,0.0,1.0,78,0.00,,,0.00,0.0,meteohub,2013-02-10 07:47:00,
2013-02-10 00:52:00,32.4,26.2,30.06,West,271,0.0,1.0,78,0.00,,,0.00,0.0,meteohub,2013-02-10 07:52:00,
2013-02-10 00:57:00,32.4,26.6,30.06,West,271,0.0,1.0,79,0.00,,,0.00,0.0,meteohub,2013-02-10 07:57:00,
2013-02-10 01:02:00,32.2,26.4,30.06,West,271,0.0,1.0,79,0.00,,,0.00,0.0,meteohub,2013-02-10 08:02:00,
2013-02-10 01:07:00,32.0,26.6,30.06,West,271,2.0,2.0,80,0.00,,,0.00,0.0,meteohub,2013-02-10 08:07:00,
2013-02-10 01:12:00,31.8,26.1,30.06,West,271,0.0,2.0,79,0.00,,,0.00,0.0,meteohub,2013-02-10 08:12:00,
2013-02-10 01:17:00,31.6,25.5,30.06,West,271,0.0,2.0,78,0.00,,,0.00,0.0,meteohub,2013-02-10 08:17:00,
2013-02-10 01:22:00,31.6,25.9,30.06,West,271,0.0,2.0,79,0.00,,,0.00,0.0,meteohub,2013-02-10 08:22:00,
2013-02-10 01:27:00,31.5,25.7,30.06,West,271,0.0,1.0,79,0.00,,,0.00,0.0,meteohub,2013-02-10 08:27:00,
2013-02-10 01:32:00,31.3,25.9,30.05,West,271,1.0,1.0,80,0.00,,,0.00,0.0,meteohub,2013-02-10 08:32:00,
2013-02-10 01:37:00,31.3,26.1,30.05,West,271,0.0,1.0,81,0.00,,,0.00,0.0,meteohub,2013-02-10 08:37:00,
2013-02-10 01:42:00,31.1,26.2,30.05,West,271,0.0,1.0,82,0.00,,,0.00,0.0,meteohub,2013-02-10 08:42:00,
2013-02-10 01:47:00,31.3,26.1,30.05,West,271,0.0,1.0,81,0.00,,,0.00,0.0,meteohub,2013-02-10 08:47:00,
2013-02-10 01:52:00,31.1,26.2,30.05,West,271,0.0,1.0,82,0.00,,,0.00,0.0,meteohub,2013-02-10 08:52:00,
2013-02-10 01:57:00,30.9,26.4,30.05,West,271,0.0,1.0,83,0.00,,,0.00,0.0,meteohub,2013-02-10 08:57:00,
2013-02-10 02:02:00,30.7,26.2,30.05,West,271,0.0,1.0,83,0.00,,,0.00,0.0,meteohub,2013-02-10 09:02:00,
2013-02-10 02:07:00,30.7,26.2,30.05,West,271,1.0,1.0,83,0.00,,,0.00,0.0,meteohub,2013-02-10 09:07:00,
2013-02-10 02:12:00,30.6,26.1,30.05,West,271,0.0,1.0,83,0.00,,,0.00,0.0,meteohub,2013-02-10 09:12:00,
2013-02-10 02:17:00,30.6,26.1,30.05,West,271,0.0,1.0,83,0.00,,,0.00,0.0,meteohub,2013-02-10 09:17:00,
2013-02-10 02:22:00,30.7,26.2,30.05,West,271,1.0,1.0,83,0.00,,,0.00,0.0,meteohub,2013-02-10 09:22:00,
2013-02-10 02:27:00,30.7,25.9,30.05,West,271,0.0,2.0,82,0.00,,,0.00,0.0,meteohub,2013-02-10 09:27:00,
2013-02-10 02:32:00,30.6,25.3,30.04,West,271,0.0,2.0,81,0.00,,,0.00,0.0,meteohub,2013-02-10 09:32:00,
2013-02-10 02:37:00,30.4,25.3,30.04,West,271,0.0,2.0,81,0.00,,,0.00,0.0,meteohub,2013-02-10 09:37:00,
2013-02-10 02:42:00,30.4,25.9,30.04,West,271,0.0,2.0,83,0.00,,,0.00,0.0,meteohub,2013-02-10 09:42:00,
2013-02-10 02:47:00,30.0,25.5,30.04,West,271,1.0,0.0,83,0.00,,,0.00,0.0,meteohub,2013-02-10 09:47:00,
2013-02-10 02:52:00,30.4,25.9,30.04,West,271,0.0,1.0,83,0.00,,,0.00,0.0,meteohub,2013-02-10 09:52:00,
2013-02-10 02:57:00,30.4,25.5,30.04,West,271,1.0,2.0,82,0.00,,,0.00,0.0,meteohub,2013-02-10 09:57:00,
2013-02-10 03:02:00,30.4,25.9,30.04,West,271,0.0,2.0,83,0.00,,,0.00,0.0,meteohub,2013-02-10 10:02:00,
2013-02-10 03:07:00,30.2,25.7,30.04,West,271,0.0,1.0,83,0.00,,,0.00,0.0,meteohub,2013-02-10 10:07:00,
2013-02-10 03:12:00,30.0,25.5,30.04,West,271,0.0,2.0,83,0.00,,,0.00,0.0,meteohub,2013-02-10 10:12:00,
2013-02-10 03:17:00,30.0,25.5,30.04,West,271,0.0,2.0,83,0.00,,,0.00,0.0,meteohub,2013-02-10 10:17:00,
2013-02-10 03:22:00,29.8,25.5,30.04,West,271,1.0,2.0,84,0.00,,,0.00,0.0,meteohub,2013-02-10 10:22:00,
2013-02-10 03:27:00,29.7,25.3,30.04,West,271,0.0,1.0,84,0.00,,,0.00,0.0,meteohub,2013-02-10 10:27:00,
2013-02-10 03:32:00,29.3,25.3,30.04,West,271,1.0,1.0,85,0.00,,,0.00,0.0,meteohub,2013-02-10 10:32:00,
2013-02-10 03:37:00,29.1,25.2,30.04,West,271,0.0,1.0,85,0.00,,,0.00,0.0,meteohub,2013-02-10 10:37:00,
2013-02-10 03:42:00,28.9,25.0,30.04,West,271,1.0,1.0,85,0.00,,,0.00,0.0,meteohub,2013-02-10 10:42:00,
2013-02-10 03:47:00,28.8,24.8,30.04,West,271,0.0,2.0,85,0.00,,,0.00,0.0,meteohub,2013-02-10 10:47:00,
2013-02-10 03:52:00,28.6,24.6,30.04,West,271,0.0,2.0,85,0.00,,,0.00,0.0,meteohub,2013-02-10 10:52:00,
2013-02-10 03:57:00,28.6,25.2,30.04,West,271,0.0,2.0,87,0.00,,,0.00,0.0,meteohub,2013-02-10 10:57:00,
2013-02-10 04:02:00,28.6,25.2,30.04,West,271,0.0,1.0,87,0.00,,,0.00,0.0,meteohub,2013-02-10 11:02:00,
2013-02-10 04:07:00,28.4,25.0,30.04,West,271,1.0,1.0,87,0.00,,,0.00,0.0,meteohub,2013-02-10 11:07:00,
2013-02-10 04:12:00,28.4,25.0,30.04,West,271,0.0,1.0,87,0.00,,,0.00,0.0,meteohub,2013-02-10 11:12:00,
2013-02-10 04:17:00,28.4,25.0,30.04,West,271,0.0,1.0,87,0.00,,,0.00,0.0,meteohub,2013-02-10 11:17:00,
2013-02-10 04:22:00,28.4,25.0,30.04,West,271,0.0,1.0,87,0.00,,,0.00,0.0,meteohub,2013-02-10 11:22:00,
2013-02-10 04:27:00,28.2,25.2,30.04,West,271,0.0,1.0,88,0.00,,,0.00,0.0,meteohub,2013-02-10 11:27:00,
2013-02-10 04:32:00,28.2,25.2,30.04,West,271,1.0,1.0,88,0.00,,,0.00,0.0,meteohub,2013-02-10 11:32:00,
2013-02-10 04:37:00,28.0,24.6,30.04,West,271,0.0,1.0,87,0.00,,,0.00,0.0,meteohub,2013-02-10 11:37:00,
2013-02-10 04:42:00,28.0,25.0,30.04,West,271,0.0,1.0,88,0.00,,,0.00,0.0,meteohub,2013-02-10 11:42:00,
2013-02-10 04:47:00,28.0,25.0,30.04,West,271,1.0,1.0,88,0.00,,,0.00,0.0,meteohub,2013-02-10 11:47:00,
2013-02-10 04:51:00,27.9,24.8,30.04,West,271,0.0,1.0,88,0.00,,,0.00,0.0,meteohub,2013-02-10 11:51:00,
2013-02-10 04:56:00,27.9,24.8,30.04,West,271,0.0,1.0,88,0.00,,,0.00,0.0,meteohub,2013-02-10 11:56:00,
2013-02-10 05:01:00,27.9,24.8,30.03,West,271,0.0,1.0,88,0.00,,,0.00,0.0,meteohub,2013-02-10 12:01:00,
2013-02-10 05:07:00,27.9,24.8,30.03,West,271,1.0,1.0,88,0.00,,,0.00,0.0,meteohub,2013-02-10 12:07:00,
2013-02-10 05:12:00,27.9,24.8,30.03,West,271,0.0,1.0,88,0.00,,,0.00,0.0,meteohub,2013-02-10 12:12:00,
2013-02-10 05:17:00,27.9,24.8,30.03,West,271,0.0,1.0,88,0.00,,,0.00,0.0,meteohub,2013-02-10 12:17:00,
2013-02-10 05:22:00,27.9,24.8,30.03,West,271,0.0,1.0,88,0.00,,,0.00,0.0,meteohub,2013-02-10 12:22:00,
2013-02-10 05:27:00,27.9,24.4,30.03,West,271,0.0,1.0,87,0.00,,,0.00,0.0,meteohub,2013-02-10 12:27:00,
2013-02-10 05:32:00,27.9,24.4,30.03,West,271,0.0,1.0,87,0.00,,,0.00,0.0,meteohub,2013-02-10 12:32:00,
2013-02-10 05:37:00,27.7,24.3,30.03,West,271,0.0,1.0,87,0.00,,,0.00,0.0,meteohub,2013-02-10 12:37:00,
2013-02-10 05:42:00,27.5,24.4,30.03,West,271,0.0,1.0,88,0.00,,,0.00,0.0,meteohub,2013-02-10 12:42:00,
2013-02-10 05:47:00,27.5,24.4,30.03,West,271,0.0,1.0,88,0.00,,,0.00,0.0,meteohub,2013-02-10 12:47:00,
2013-02-10 05:52:00,27.5,24.4,30.03,West,271,0.0,1.0,88,0.00,,,0.00,0.0,meteohub,2013-02-10 12:52:00,
2013-02-10 05:56:00,27.5,24.4,30.03,West,271,0.0,1.0,88,0.00,,,0.00,0.0,meteohub,2013-02-10 12:56:00,
2013-02-10 06:01:00,27.5,24.4,30.03,West,271,0.0,1.0,88,0.00,,,0.00,0.0,meteohub,2013-02-10 13:01:00,
2013-02-10 06:06:00,27.3,24.3,30.03,West,271,0.0,1.0,88,0.00,,,0.00,0.0,meteohub,2013-02-10 13:06:00,
2013-02-10 06:11:00,27.3,24.3,30.03,West,271,1.0,1.0,88,0.00,,,0.00,0.0,meteohub,2013-02-10 13:11:00,
2013-02-10 06:16:00,27.3,24.3,30.03,West,271,0.0,1.0,88,0.00,,,0.00,0.0,meteohub,2013-02-10 13:16:00,
2013-02-10 06:21:00,27.1,24.1,30.03,West,271,0.0,1.0,88,0.00,,,0.00,0.0,meteohub,2013-02-10 13:21:00,
2013-02-10 06:27:00,27.1,24.3,30.03,West,271,0.0,1.0,89,0.00,,,0.00,0.0,meteohub,2013-02-10 13:27:00,
2013-02-10 06:32:00,27.1,24.3,30.03,West,271,0.0,1.0,89,0.00,,,0.00,0.0,meteohub,2013-02-10 13:32:00,
2013-02-10 06:37:00,27.1,24.3,30.04,West,271,0.0,1.0,89,0.00,,,0.00,0.0,meteohub,2013-02-10 13:37:00,
2013-02-10 06:42:00,27.0,24.1,30.04,West,271,0.0,1.0,89,0.00,,,0.00,0.0,meteohub,2013-02-10 13:42:00,
2013-02-10 06:47:00,27.0,24.1,30.04,West,271,0.0,0.0,89,0.00,,,0.00,0.0,meteohub,2013-02-10 13:47:00,
2013-02-10 06:52:00,27.0,24.1,30.04,West,271,1.0,1.0,89,0.00,,,0.00,0.0,meteohub,2013-02-10 13:52:00,
2013-02-10 06:57:00,27.0,24.1,30.04,West,271,0.0,1.0,89,0.00,,,0.00,0.0,meteohub,2013-02-10 13:57:00,
2013-02-10 07:02:00,26.8,23.9,30.04,West,271,0.0,1.0,89,0.00,,,0.00,0.0,meteohub,2013-02-10 14:02:00,
2013-02-10 07:07:00,26.8,24.3,30.04,West,271,0.0,1.0,90,0.00,,,0.00,0.0,meteohub,2013-02-10 14:07:00,
2013-02-10 07:11:00,26.8,24.3,30.04,West,271,0.0,1.0,90,0.00,,,0.00,7.0,meteohub,2013-02-10 14:11:00,
2013-02-10 07:12:00,26.8,24.3,30.04,West,271,0.0,1.0,90,0.00,,,0.00,7.0,meteohub,2013-02-10 14:12:00,
2013-02-10 07:22:00,27.0,24.1,30.04,West,271,0.0,1.0,89,0.00,,,0.00,12.0,meteohub,2013-02-10 14:22:00,
2013-02-10 07:27:00,27.1,24.3,30.04,West,271,0.0,2.0,89,0.00,,,0.00,14.0,meteohub,2013-02-10 14:27:00,
2013-02-10 07:32:00,27.3,24.4,30.04,West,271,0.0,2.0,89,0.00,,,0.00,18.0,meteohub,2013-02-10 14:32:00,
2013-02-10 07:37:00,27.3,24.4,30.04,West,271,0.0,2.0,89,0.00,,,0.00,21.0,meteohub,2013-02-10 14:37:00,
2013-02-10 07:42:00,27.5,25.0,30.04,West,271,0.0,1.0,90,0.00,,,0.00,23.0,meteohub,2013-02-10 14:42:00,
2013-02-10 07:47:00,27.9,25.0,30.04,West,271,0.0,0.0,89,0.00,,,0.00,23.0,meteohub,2013-02-10 14:47:00,
2013-02-10 07:52:00,28.0,25.2,30.04,West,271,0.0,1.0,89,0.00,,,0.00,88.0,meteohub,2013-02-10 14:52:00,
2013-02-10 07:57:00,28.8,25.9,30.04,West,271,0.0,1.0,89,0.00,,,0.00,107.0,meteohub,2013-02-10 14:57:00,
2013-02-10 08:02:00,29.8,26.8,30.04,West,271,1.0,0.0,88,0.00,,,0.00,128.0,meteohub,2013-02-10 15:02:00,
2013-02-10 08:07:00,31.3,27.5,30.04,West,271,0.0,2.0,86,0.00,,,0.00,149.0,meteohub,2013-02-10 15:07:00,
2013-02-10 08:12:00,32.5,27.7,30.04,West,271,0.0,2.0,82,0.00,,,0.00,172.0,meteohub,2013-02-10 15:12:00,
2013-02-10 08:17:00,34.0,28.4,30.04,West,271,0.0,2.0,80,0.00,,,0.00,195.0,meteohub,2013-02-10 15:17:00,
2013-02-10 08:22:00,35.1,28.6,30.04,West,271,0.0,2.0,77,0.00,,,0.00,216.0,meteohub,2013-02-10 15:22:00,
2013-02-10 08:27:00,36.7,29.1,30.04,West,271,0.0,1.0,74,0.00,,,0.00,234.0,meteohub,2013-02-10 15:27:00,
2013-02-10 08:32:00,37.9,28.4,30.04,West,271,0.0,1.0,68,0.00,,,0.00,253.0,meteohub,2013-02-10 15:32:00,
2013-02-10 08:37:00,39.6,28.4,30.04,West,271,0.0,1.0,64,0.00,,,0.00,269.0,meteohub,2013-02-10 15:37:00,
2013-02-10 08:42:00,40.8,28.0,30.04,West,271,1.0,1.0,60,0.00,,,0.00,285.0,meteohub,2013-02-10 15:42:00,
2013-02-10 08:47:00,42.1,28.4,30.04,West,271,0.0,1.0,58,0.00,,,0.00,301.0,meteohub,2013-02-10 15:47:00,
2013-02-10 08:52:00,43.2,28.9,30.05,West,271,0.0,1.0,57,0.00,,,0.00,315.0,meteohub,2013-02-10 15:52:00,
2013-02-10 08:57:00,43.9,27.9,30.05,West,271,1.0,2.0,53,0.00,,,0.00,330.0,meteohub,2013-02-10 15:57:00,
2013-02-10 09:02:00,44.4,27.9,30.05,West,271,1.0,2.0,52,0.00,,,0.00,348.0,meteohub,2013-02-10 16:02:00,
2013-02-10 09:07:00,44.8,27.3,30.05,WSW,250,0.0,2.0,50,0.00,,,0.00,364.0,meteohub,2013-02-10 16:07:00,
2013-02-10 09:12:00,45.3,27.3,30.05,WSW,250,0.0,2.0,49,0.00,,,0.00,383.0,meteohub,2013-02-10 16:12:00,
2013-02-10 09:17:00,46.0,27.0,30.05,WSW,250,1.0,2.0,47,0.00,,,0.00,401.0,meteohub,2013-02-10 16:17:00,
2013-02-10 09:22:00,45.9,26.8,30.05,WSW,250,2.0,2.0,47,0.00,,,0.00,417.0,meteohub,2013-02-10 16:22:00,
2013-02-10 09:27:00,45.5,26.4,30.05,WSW,248,2.0,2.0,47,0.00,,,0.00,434.0,meteohub,2013-02-10 16:27:00,
2013-02-10 09:32:00,46.0,26.4,30.04,WSW,248,1.0,2.0,46,0.00,,,0.00,450.0,meteohub,2013-02-10 16:32:00,
2013-02-10 09:37:00,46.4,27.3,30.04,WSW,240,1.0,2.0,47,0.00,,,0.00,468.0,meteohub,2013-02-10 16:37:00,
2013-02-10 09:42:00,46.4,27.9,30.04,WSW,239,0.0,4.0,48,0.00,,,0.00,483.0,meteohub,2013-02-10 16:42:00,
2013-02-10 09:47:00,46.4,26.8,30.04,WSW,258,2.0,4.0,46,0.00,,,0.00,499.0,meteohub,2013-02-10 16:47:00,
2013-02-10 09:52:00,46.6,27.0,30.04,SW,231,0.0,4.0,46,0.00,,,0.00,510.0,meteohub,2013-02-10 16:52:00,
2013-02-10 09:57:00,46.9,26.8,30.04,SW,231,2.0,3.0,45,0.00,,,0.00,524.0,meteohub,2013-02-10 16:57:00,
2013-02-10 10:02:00,47.1,26.8,30.04,SW,217,2.0,4.0,45,0.00,,,0.00,540.0,meteohub,2013-02-10 17:02:00,
2013-02-10 10:07:00,47.1,26.2,30.04,SSW,212,2.0,4.0,44,0.00,,,0.00,555.0,meteohub,2013-02-10 17:07:00,
2013-02-10 10:12:00,47.7,25.7,30.04,SSW,211,2.0,4.0,42,0.00,,,0.00,568.0,meteohub,2013-02-10 17:12:00,
2013-02-10 10:17:00,48.4,25.7,30.04,SW,217,3.0,4.0,41,0.00,,,0.00,580.0,meteohub,2013-02-10 17:17:00,
2013-02-10 10:22:00,48.7,25.5,30.04,South,190,2.0,4.0,40,0.00,,,0.00,596.0,meteohub,2013-02-10 17:22:00,
2013-02-10 10:27:00,49.3,26.1,30.04,NW,304,2.0,4.0,40,0.00,,,0.00,608.0,meteohub,2013-02-10 17:27:00,
2013-02-10 10:32:00,49.5,25.5,30.04,West,259,3.0,4.0,39,0.00,,,0.00,622.0,meteohub,2013-02-10 17:32:00,
2013-02-10 10:37:00,49.1,25.2,30.04,WNW,286,1.0,4.0,39,0.00,,,0.00,631.0,meteohub,2013-02-10 17:37:00,
2013-02-10 10:42:00,49.1,24.6,30.04,SW,229,1.0,6.0,38,0.00,,,0.00,643.0,meteohub,2013-02-10 17:42:00,
2013-02-10 10:47:00,49.3,24.8,30.04,West,266,2.0,6.0,38,0.00,,,0.00,654.0,meteohub,2013-02-10 17:47:00,
2013-02-10 10:52:00,49.1,22.6,30.04,West,259,1.0,6.0,35,0.00,,,0.00,664.0,meteohub,2013-02-10 17:52:00,
2013-02-10 10:57:00,49.5,23.5,30.04,West,265,1.0,5.0,36,0.00,,,0.00,675.0,meteohub,2013-02-10 17:57:00,
2013-02-10 11:02:00,49.8,23.9,30.04,WNW,284,2.0,5.0,36,0.00,,,0.00,686.0,meteohub,2013-02-10 18:02:00,
2013-02-10 11:08:00,49.8,23.9,30.04,SSW,212,2.0,6.0,36,0.00,,,0.00,696.0,meteohub,2013-02-10 18:08:00,
2013-02-10 11:13:00,50.0,22.6,30.04,SW,223,3.0,6.0,34,0.00,,,0.00,705.0,meteohub,2013-02-10 18:13:00,
2013-02-10 11:18:00,50.4,22.3,30.03,SSW,201,2.0,6.0,33,0.00,,,0.00,710.0,meteohub,2013-02-10 18:18:00,
2013-02-10 11:23:00,50.5,23.2,30.03,South,181,1.0,6.0,34,0.00,,,0.00,717.0,meteohub,2013-02-10 18:23:00,
2013-02-10 11:28:00,51.1,21.6,30.03,South,184,2.0,6.0,31,0.00,,,0.00,726.0,meteohub,2013-02-10 18:28:00,
2013-02-10 11:33:00,51.4,21.7,30.03,SE,143,1.0,5.0,31,0.00,,,0.00,733.0,meteohub,2013-02-10 18:33:00,
2013-02-10 11:38:00,51.4,21.7,30.03,South,190,1.0,5.0,31,0.00,,,0.00,738.0,meteohub,2013-02-10 18:38:00,
2013-02-10 11:43:00,51.4,21.0,30.03,SSW,208,2.0,7.0,30,0.00,,,0.00,747.0,meteohub,2013-02-10 18:43:00,
2013-02-10 11:48:00,51.6,20.3,30.02,WNW,284,1.0,7.0,29,0.00,,,0.00,754.0,meteohub,2013-02-10 18:48:00,
2013-02-10 11:53:00,52.2,17.4,30.02,SSW,198,3.0,7.0,25,0.00,,,0.00,759.0,meteohub,2013-02-10 18:53:00,
2013-02-10 11:58:00,51.8,20.5,30.02,SSE,164,1.0,6.0,29,0.00,,,0.00,763.0,meteohub,2013-02-10 18:58:00,
2013-02-10 12:03:00,52.2,20.8,30.02,East,86,2.0,6.0,29,0.00,,,0.00,765.0,meteohub,2013-02-10 19:03:00,
2013-02-10 12:08:00,52.5,20.3,30.02,NW,318,2.0,6.0,28,0.00,,,0.00,770.0,meteohub,2013-02-10 19:08:00,
2013-02-10 12:13:00,52.5,18.7,30.01,WNW,288,4.0,5.0,26,0.00,,,0.00,772.0,meteohub,2013-02-10 19:13:00,
2013-02-10 12:18:00,52.5,18.7,30.01,SW,223,3.0,7.0,26,0.00,,,0.00,777.0,meteohub,2013-02-10 19:18:00,
2013-02-10 12:23:00,52.5,17.8,30.01,SSE,159,4.0,7.0,25,0.00,,,0.00,779.0,meteohub,2013-02-10 19:23:00,
2013-02-10 12:28:00,52.5,18.7,30.00,SW,230,5.0,7.0,26,0.00,,,0.00,782.0,meteohub,2013-02-10 19:28:00,
2013-02-10 12:33:00,52.3,17.6,30.00,ESE,121,3.0,6.0,25,0.00,,,0.00,782.0,meteohub,2013-02-10 19:33:00,
2013-02-10 12:38:00,52.3,17.6,30.00,West,266,2.0,6.0,25,0.00,,,0.00,786.0,meteohub,2013-02-10 19:38:00,
2013-02-10 12:43:00,52.9,18.9,29.99,SE,141,3.0,6.0,26,0.00,,,0.00,784.0,meteohub,2013-02-10 19:43:00,
2013-02-10 12:48:00,53.1,19.0,29.99,East,84,5.0,6.0,26,0.00,,,0.00,780.0,meteohub,2013-02-10 19:48:00,
2013-02-10 12:53:00,53.2,19.2,29.99,SSW,200,3.0,5.0,26,0.00,,,0.00,780.0,meteohub,2013-02-10 19:53:00,
2013-02-10 12:58:00,53.8,20.7,29.99,WSW,239,2.0,6.0,27,0.00,,,0.00,779.0,meteohub,2013-02-10 19:58:00,
2013-02-10 13:03:00,54.1,20.8,29.99,WSW,257,6.0,6.0,27,0.00,,,0.00,777.0,meteohub,2013-02-10 20:03:00,
2013-02-10 13:08:00,54.7,19.6,29.98,SSW,207,6.0,7.0,25,0.00,,,0.00,775.0,meteohub,2013-02-10 20:08:00,
2013-02-10 13:13:00,54.5,19.4,29.98,SSW,207,3.0,9.0,25,0.00,,,0.00,772.0,meteohub,2013-02-10 20:13:00,
2013-02-10 13:18:00,54.1,19.9,29.98,South,189,4.0,9.0,26,0.00,,,0.00,766.0,meteohub,2013-02-10 20:18:00,
2013-02-10 13:23:00,54.0,18.9,29.97,WSW,237,1.0,9.0,25,0.00,,,0.00,763.0,meteohub,2013-02-10 20:23:00,
2013-02-10 13:28:00,53.8,18.9,29.97,WSW,255,5.0,8.0,25,0.00,,,0.00,758.0,meteohub,2013-02-10 20:28:00,
2013-02-10 13:33:00,54.1,18.1,29.97,WSW,254,1.0,8.0,24,0.00,,,0.00,752.0,meteohub,2013-02-10 20:33:00,
2013-02-10 13:39:00,54.5,20.3,29.97,WSW,238,3.0,9.0,26,0.00,,,0.00,749.0,meteohub,2013-02-10 20:39:00,
2013-02-10 13:44:00,54.3,20.1,29.96,SSW,205,3.0,9.0,26,0.00,,,0.00,745.0,meteohub,2013-02-10 20:44:00,
2013-02-10 13:49:00,54.7,20.5,29.96,West,267,5.0,9.0,26,0.00,,,0.00,738.0,meteohub,2013-02-10 20:49:00,
2013-02-10 13:54:00,54.7,19.6,29.96,West,264,2.0,8.0,25,0.00,,,0.00,733.0,meteohub,2013-02-10 20:54:00,
2013-02-10 13:59:00,54.7,18.5,29.96,West,268,1.0,7.0,24,0.00,,,0.00,722.0,meteohub,2013-02-10 20:59:00,
2013-02-10 14:04:00,55.0,20.8,29.96,NW,325,5.0,7.0,26,0.00,,,0.00,719.0,meteohub,2013-02-10 21:04:00,
2013-02-10 14:09:00,55.0,19.8,29.96,West,263,2.0,5.0,25,0.00,,,0.00,708.0,meteohub,2013-02-10 21:09:00,
2013-02-10 14:14:00,55.4,18.1,29.96,SSW,213,1.0,6.0,23,0.00,,,0.00,700.0,meteohub,2013-02-10 21:14:00,
2013-02-10 14:19:00,55.6,20.3,29.96,WSW,248,6.0,6.0,25,0.00,,,0.00,693.0,meteohub,2013-02-10 21:19:00,
2013-02-10 14:24:00,55.6,20.3,29.96,NW,319,2.0,8.0,25,0.00,,,0.00,684.0,meteohub,2013-02-10 21:24:00,
2013-02-10 14:29:00,55.2,19.9,29.96,West,267,4.0,8.0,25,0.00,,,0.00,675.0,meteohub,2013-02-10 21:29:00,
2013-02-10 14:34:00,55.8,19.6,29.96,SW,229,4.0,8.0,24,0.00,,,0.00,671.0,meteohub,2013-02-10 21:34:00,
2013-02-10 14:39:00,56.5,19.0,29.96,West,278,8.0,8.0,23,0.00,,,0.00,654.0,meteohub,2013-02-10 21:39:00,
2013-02-10 14:44:00,55.9,16.5,29.96,WSW,241,4.0,10.0,21,0.00,,,0.00,649.0,meteohub,2013-02-10 21:44:00,
2013-02-10 14:49:00,55.9,16.5,29.96,SSW,202,4.0,10.0,21,0.00,,,0.00,636.0,meteohub,2013-02-10 21:49:00,
2013-02-10 14:54:00,55.8,17.4,29.96,West,281,1.0,10.0,22,0.00,,,0.00,621.0,meteohub,2013-02-10 21:54:00,
2013-02-10 14:59:00,55.9,18.7,29.96,SW,218,9.0,10.0,23,0.00,,,0.00,606.0,meteohub,2013-02-10 21:59:00,
2013-02-10 15:04:00,56.5,19.0,29.96,SSW,192,5.0,7.0,23,0.00,,,0.00,596.0,meteohub,2013-02-10 22:04:00,
2013-02-10 15:09:00,56.5,19.0,29.96,SSW,198,6.0,9.0,23,0.00,,,0.00,580.0,meteohub,2013-02-10 22:09:00,
2013-02-10 15:14:00,55.9,18.7,29.95,NW,317,6.0,9.0,23,0.00,,,0.00,570.0,meteohub,2013-02-10 22:14:00,
2013-02-10 15:19:00,55.8,18.5,29.95,SSW,206,3.0,9.0,23,0.00,,,0.00,554.0,meteohub,2013-02-10 22:19:00,
2013-02-10 15:24:00,55.9,17.6,29.95,West,271,3.0,9.0,22,0.00,,,0.00,540.0,meteohub,2013-02-10 22:24:00,
2013-02-10 15:29:00,56.3,18.0,29.95,West,272,3.0,9.0,22,0.00,,,0.00,527.0,meteohub,2013-02-10 22:29:00,
2013-02-10 15:34:00,56.1,18.9,29.95,WNW,290,6.0,9.0,23,0.00,,,0.00,512.0,meteohub,2013-02-10 22:34:00,
2013-02-10 15:39:00,56.1,18.9,29.95,West,271,4.0,10.0,23,0.00,,,0.00,496.0,meteohub,2013-02-10 22:39:00,
2013-02-10 15:44:00,55.8,18.5,29.95,NW,310,1.0,10.0,23,0.00,,,0.00,492.0,meteohub,2013-02-10 22:44:00,
2013-02-10 15:49:00,56.5,20.1,29.95,WSW,238,3.0,10.0,24,0.00,,,0.00,464.0,meteohub,2013-02-10 22:49:00,
2013-02-10 15:54:00,56.7,19.2,29.95,West,262,6.0,10.0,23,0.00,,,0.00,452.0,meteohub,2013-02-10 22:54:00,
2013-02-10 15:59:00,56.7,20.3,29.95,WSW,246,4.0,10.0,24,0.00,,,0.00,434.0,meteohub,2013-02-10 22:59:00,
2013-02-10 16:04:00,56.7,20.3,29.95,SW,225,2.0,10.0,24,0.00,,,0.00,417.0,meteohub,2013-02-10 23:04:00,
2013-02-10 16:09:00,56.8,20.5,29.95,SSW,204,3.0,9.0,24,0.00,,,0.00,401.0,meteohub,2013-02-10 23:09:00,
2013-02-10 16:14:00,56.8,20.5,29.94,SSW,211,1.0,9.0,24,0.00,,,0.00,381.0,meteohub,2013-02-10 23:14:00,
2013-02-10 16:19:00,56.8,20.5,29.94,SW,232,0.0,7.0,24,0.00,,,0.00,366.0,meteohub,2013-02-10 23:19:00,
2013-02-10 16:24:00,56.7,20.3,29.95,West,279,3.0,6.0,24,0.00,,,0.00,348.0,meteohub,2013-02-10 23:24:00,
2013-02-10 16:29:00,56.5,20.1,29.94,WNW,299,2.0,6.0,24,0.00,,,0.00,330.0,meteohub,2013-02-10 23:29:00,
2013-02-10 16:34:00,55.9,20.7,29.94,West,269,3.0,10.0,25,0.00,,,0.00,311.0,meteohub,2013-02-10 23:34:00,
2013-02-10 16:39:00,55.9,21.6,29.94,WSW,238,1.0,10.0,26,0.00,,,0.00,292.0,meteohub,2013-02-10 23:39:00,
2013-02-10 16:44:00,56.1,20.8,29.94,WSW,254,5.0,10.0,25,0.00,,,0.00,269.0,meteohub,2013-02-10 23:44:00,
2013-02-10 16:49:00,56.1,19.8,29.94,West,267,2.0,8.0,24,0.00,,,0.00,246.0,meteohub,2013-02-10 23:49:00,
2013-02-10 16:54:00,55.8,20.5,29.94,WSW,244,1.0,6.0,25,0.00,,,0.00,221.0,meteohub,2013-02-10 23:54:00,
2013-02-10 16:59:00,55.8,19.6,29.94,WSW,244,3.0,7.0,24,0.00,,,0.00,197.0,meteohub,2013-02-10 23:59:00,
2013-02-10 17:05:00,55.9,19.6,29.94,West,273,3.0,7.0,24,0.00,,,0.00,174.0,meteohub,2013-02-11 00:05:00,
2013-02-10 17:10:00,55.4,20.1,29.94,WNW,296,2.0,6.0,25,0.00,,,0.00,149.0,meteohub,2013-02-11 00:10:00,
2013-02-10 17:15:00,55.4,19.2,29.94,West,271,3.0,8.0,24,0.00,,,0.00,130.0,meteohub,2013-02-11 00:15:00,
2013-02-10 17:20:00,55.2,19.0,29.94,NW,317,5.0,8.0,24,0.00,,,0.00,109.0,meteohub,2013-02-11 00:20:00,
2013-02-10 17:25:00,54.7,19.6,29.94,West,259,3.0,8.0,25,0.00,,,0.00,88.0,meteohub,2013-02-11 00:25:00,
2013-02-10 17:30:00,54.1,19.0,29.94,West,262,3.0,9.0,25,0.00,,,0.00,63.0,meteohub,2013-02-11 00:30:00,
2013-02-10 17:35:00,53.6,19.6,29.94,WNW,303,3.0,9.0,26,0.00,,,0.00,35.0,meteohub,2013-02-11 00:35:00,
2013-02-10 17:40:00,53.4,20.3,29.94,WNW,293,2.0,9.0,27,0.00,,,0.00,26.0,meteohub,2013-02-11 00:40:00,
2013-02-10 17:45:00,53.1,19.9,29.94,West,265,3.0,8.0,27,0.00,,,0.00,18.0,meteohub,2013-02-11 00:45:00,
2013-02-10 17:50:00,52.9,20.7,29.94,West,269,3.0,8.0,28,0.00,,,0.00,16.0,meteohub,2013-02-11 00:50:00,
2013-02-10 17:55:00,52.3,20.1,29.94,West,261,2.0,8.0,28,0.00,,,0.00,12.0,meteohub,2013-02-11 00:55:00,
2013-02-10 18:00:00,52.2,20.8,29.94,West,261,3.0,7.0,29,0.00,,,0.00,9.0,meteohub,2013-02-11 01:00:00,
2013-02-10 18:05:00,51.8,21.4,29.94,WNW,296,2.0,7.0,30,0.00,,,0.00,7.0,meteohub,2013-02-11 01:05:00,
2013-02-10 18:10:00,51.4,21.7,29.94,West,269,2.0,7.0,31,0.00,,,0.00,0.0,meteohub,2013-02-11 01:10:00,
2013-02-10 18:15:00,51.1,21.6,29.94,West,268,0.0,7.0,31,0.00,,,0.00,0.0,meteohub,2013-02-11 01:15:00,
2013-02-10 18:20:00,50.7,21.9,29.95,West,265,0.0,6.0,32,0.00,,,0.00,0.0,meteohub,2013-02-11 01:20:00,
2013-02-10 18:25:00,50.2,22.1,29.95,West,265,1.0,4.0,33,0.00,,,0.00,0.0,meteohub,2013-02-11 01:25:00,
2013-02-10 18:30:00,49.8,22.6,29.95,West,265,2.0,3.0,34,0.00,,,0.00,0.0,meteohub,2013-02-11 01:30:00,
2013-02-10 18:35:00,49.5,22.3,29.95,West,265,1.0,3.0,34,0.00,,,0.00,0.0,meteohub,2013-02-11 01:35:00,
2013-02-10 18:40:00,49.1,22.6,29.95,West,265,1.0,3.0,35,0.00,,,0.00,0.0,meteohub,2013-02-11 01:40:00,
2013-02-10 18:45:00,48.7,23.0,29.96,West,265,0.0,3.0,36,0.00,,,0.00,0.0,meteohub,2013-02-11 01:45:00,
2013-02-10 18:50:00,48.4,23.4,29.96,West,265,1.0,2.0,37,0.00,,,0.00,0.0,meteohub,2013-02-11 01:50:00,
2013-02-10 18:55:00,47.8,22.8,29.96,West,265,0.0,2.0,37,0.00,,,0.00,0.0,meteohub,2013-02-11 01:55:00,
2013-02-10 19:00:00,47.5,23.2,29.96,West,265,0.0,1.0,38,0.00,,,0.00,0.0,meteohub,2013-02-11 02:00:00,
2013-02-10 19:05:00,47.1,22.8,29.96,West,265,0.0,1.0,38,0.00,,,0.00,0.0,meteohub,2013-02-11 02:05:00,
2013-02-10 19:10:00,46.8,23.7,29.96,West,265,0.0,1.0,40,0.00,,,0.00,0.0,meteohub,2013-02-11 02:10:00,
2013-02-10 19:15:00,46.2,23.2,29.96,West,265,0.0,0.0,40,0.00,,,0.00,0.0,meteohub,2013-02-11 02:15:00,
2013-02-10 19:20:00,45.9,23.5,29.96,West,265,0.0,0.0,41,0.00,,,0.00,0.0,meteohub,2013-02-11 02:20:00,
2013-02-10 19:25:00,45.3,24.1,29.96,West,265,0.0,1.0,43,0.00,,,0.00,0.0,meteohub,2013-02-11 02:25:00,
2013-02-10 19:30:00,44.8,23.7,29.97,West,265,0.0,1.0,43,0.00,,,0.00,0.0,meteohub,2013-02-11 02:30:00,
2013-02-10 19:35:00,44.2,24.8,29.96,West,265,1.0,1.0,46,0.00,,,0.00,0.0,meteohub,2013-02-11 02:35:00,
2013-02-10 19:40:00,43.7,24.8,29.97,West,265,0.0,1.0,47,0.00,,,0.00,0.0,meteohub,2013-02-11 02:40:00,
2013-02-10 19:45:00,43.2,24.3,29.97,West,265,1.0,1.0,47,0.00,,,0.00,0.0,meteohub,2013-02-11 02:45:00,
2013-02-10 19:50:00,42.6,24.8,29.97,West,265,0.0,1.0,49,0.00,,,0.00,0.0,meteohub,2013-02-11 02:50:00,
2013-02-10 19:55:00,42.1,25.3,29.97,West,265,0.0,1.0,51,0.00,,,0.00,0.0,meteohub,2013-02-11 02:55:00,
2013-02-10 20:00:00,41.5,24.8,29.97,West,265,0.0,1.0,51,0.00,,,0.00,0.0,meteohub,2013-02-11 03:00:00,
2013-02-10 20:05:00,41.2,24.8,29.97,West,265,1.0,1.0,52,0.00,,,0.00,0.0,meteohub,2013-02-11 03:05:00,
2013-02-10 20:10:00,40.6,24.8,29.97,West,265,0.0,2.0,53,0.00,,,0.00,0.0,meteohub,2013-02-11 03:10:00,
2013-02-10 20:16:00,40.3,25.0,29.98,West,265,0.0,2.0,54,0.00,,,0.00,0.0,meteohub,2013-02-11 03:16:00,
2013-02-10 20:21:00,39.7,24.1,29.98,West,265,0.0,2.0,53,0.00,,,0.00,0.0,meteohub,2013-02-11 03:21:00,
2013-02-10 20:26:00,39.6,24.8,29.98,West,265,0.0,1.0,55,0.00,,,0.00,0.0,meteohub,2013-02-11 03:26:00,
2013-02-10 20:31:00,39.2,24.8,29.98,West,265,1.0,1.0,56,0.00,,,0.00,0.0,meteohub,2013-02-11 03:31:00,
2013-02-10 20:36:00,38.8,24.4,29.98,West,265,0.0,1.0,56,0.00,,,0.00,0.0,meteohub,2013-02-11 03:36:00,
2013-02-10 20:41:00,38.7,24.8,29.98,West,265,1.0,1.0,57,0.00,,,0.00,0.0,meteohub,2013-02-11 03:41:00,
2013-02-10 20:46:00,38.5,24.6,29.98,West,265,0.0,2.0,57,0.00,,,0.00,0.0,meteohub,2013-02-11 03:46:00,
2013-02-10 20:51:00,37.9,24.1,29.98,West,265,0.0,2.0,57,0.00,,,0.00,0.0,meteohub,2013-02-11 03:51:00,
2013-02-10 20:56:00,37.9,24.1,29.99,West,265,0.0,2.0,57,0.00,,,0.00,0.0,meteohub,2013-02-11 03:56:00,
2013-02-10 21:01:00,38.3,23.5,29.99,West,265,0.0,2.0,55,0.00,,,0.00,0.0,meteohub,2013-02-11 04:01:00,
2013-02-10 21:06:00,38.7,24.3,29.99,West,265,0.0,2.0,56,0.00,,,0.00,0.0,meteohub,2013-02-11 04:06:00,
2013-02-10 21:11:00,38.8,24.1,29.99,West,265,0.0,1.0,55,0.00,,,0.00,0.0,meteohub,2013-02-11 04:11:00,
2013-02-10 21:16:00,38.8,25.0,29.99,West,265,0.0,1.0,57,0.00,,,0.00,0.0,meteohub,2013-02-11 04:16:00,
2013-02-10 21:21:00,38.7,24.8,29.99,West,265,0.0,1.0,57,0.00,,,0.00,0.0,meteohub,2013-02-11 04:21:00,
2013-02-10 21:26:00,38.3,24.8,29.99,West,265,0.0,1.0,58,0.00,,,0.00,0.0,meteohub,2013-02-11 04:26:00,
2013-02-10 21:31:00,37.9,25.0,30.00,West,265,0.0,1.0,59,0.00,,,0.00,0.0,meteohub,2013-02-11 04:31:00,
2013-02-10 21:36:00,37.8,25.2,30.00,West,265,0.0,1.0,60,0.00,,,0.00,0.0,meteohub,2013-02-11 04:36:00,
2013-02-10 21:41:00,37.4,24.8,30.00,West,265,0.0,1.0,60,0.00,,,0.00,0.0,meteohub,2013-02-11 04:41:00,
2013-02-10 21:46:00,37.0,25.7,30.00,West,265,1.0,1.0,63,0.00,,,0.00,0.0,meteohub,2013-02-11 04:46:00,
2013-02-10 21:51:00,36.7,25.3,30.00,West,265,0.0,1.0,63,0.00,,,0.00,0.0,meteohub,2013-02-11 04:51:00,
2013-02-10 21:56:00,36.3,25.3,30.00,West,265,0.0,1.0,64,0.00,,,0.00,0.0,meteohub,2013-02-11 04:56:00,
2013-02-10 22:00:00,36.1,24.8,30.00,West,265,0.0,1.0,63,0.00,,,0.00,0.0,meteohub,2013-02-11 05:00:00,
2013-02-10 22:05:00,36.0,24.3,30.00,West,265,1.0,1.0,62,0.00,,,0.00,0.0,meteohub,2013-02-11 05:05:00,
2013-02-10 22:10:00,35.8,24.1,30.00,West,265,1.0,2.0,62,0.00,,,0.00,0.0,meteohub,2013-02-11 05:10:00,
2013-02-10 22:15:00,35.6,24.6,30.00,West,265,0.0,2.0,64,0.00,,,0.00,0.0,meteohub,2013-02-11 05:15:00,
2013-02-10 22:20:00,35.4,24.4,30.00,West,265,0.0,2.0,64,0.00,,,0.00,0.0,meteohub,2013-02-11 05:20:00,
2013-02-10 22:25:00,35.2,25.0,30.00,West,265,1.0,1.0,66,0.00,,,0.00,0.0,meteohub,2013-02-11 05:25:00,
2013-02-10 22:30:00,35.1,25.2,30.00,West,265,0.0,1.0,67,0.00,,,0.00,0.0,meteohub,2013-02-11 05:30:00,
2013-02-10 22:35:00,34.5,25.0,30.00,West,265,0.0,1.0,68,0.00,,,0.00,0.0,meteohub,2013-02-11 05:35:00,
2013-02-10 22:40:00,34.5,25.0,30.00,West,265,0.0,1.0,68,0.00,,,0.00,0.0,meteohub,2013-02-11 05:40:00,
2013-02-10 22:45:00,34.3,25.2,30.00,West,265,1.0,1.0,69,0.00,,,0.00,0.0,meteohub,2013-02-11 05:45:00,
2013-02-10 22:50:00,34.2,25.0,30.00,West,265,1.0,1.0,69,0.00,,,0.00,0.0,meteohub,2013-02-11 05:50:00,
2013-02-10 22:55:00,34.0,25.2,30.00,West,265,1.0,1.0,70,0.00,,,0.00,0.0,meteohub,2013-02-11 05:55:00,
2013-02-10 23:00:00,33.8,25.0,30.00,West,265,0.0,1.0,70,0.00,,,0.00,0.0,meteohub,2013-02-11 06:00:00,
2013-02-10 23:05:00,34.0,25.2,30.00,West,265,0.0,1.0,70,0.00,,,0.00,0.0,meteohub,2013-02-11 06:05:00,
2013-02-10 23:10:00,34.0,25.2,30.00,West,265,0.0,1.0,70,0.00,,,0.00,0.0,meteohub,2013-02-11 06:10:00,
2013-02-10 23:15:00,34.0,25.5,30.00,West,265,0.0,1.0,71,0.00,,,0.00,0.0,meteohub,2013-02-11 06:15:00,
2013-02-10 23:21:00,33.8,25.3,30.00,West,265,0.0,1.0,71,0.00,,,0.00,0.0,meteohub,2013-02-11 06:21:00,
2013-02-10 23:25:00,33.6,25.2,30.00,West,265,1.0,1.0,71,0.00,,,0.00,0.0,meteohub,2013-02-11 06:25:00,
2013-02-10 23:31:00,33.8,25.3,30.00,West,265,0.0,1.0,71,0.00,,,0.00,0.0,meteohub,2013-02-11 06:31:00,
2013-02-10 23:36:00,33.8,25.3,30.00,West,265,0.0,1.0,71,0.00,,,0.00,0.0,meteohub,2013-02-11 06:36:00,
2013-02-10 23:41:00,34.2,25.0,30.00,West,265,1.0,1.0,69,0.00,,,0.00,0.0,meteohub,2013-02-11 06:41:00,
2013-02-10 23:46:00,34.9,25.3,30.00,West,265,1.0,1.0,68,0.00,,,0.00,0.0,meteohub,2013-02-11 06:46:00,
2013-02-10 23:51:00,35.4,25.2,30.00,West,265,1.0,2.0,66,0.00,,,0.00,0.0,meteohub,2013-02-11 06:51:00,
2013-02-10 23:56:00,36.1,25.5,30.00,West,265,1.0,2.0,65,0.00,,,0.00,0.0,meteohub,2013-02-11 06:56:00,